Regional Weather Roundup
Issued by NWS

Home | Current Version | Previous Version | Graphics & Text | Print | Product List | Glossary On
Versions: 1 2 3 4 5 6 7 8 9 10 11 12 13 14 15 16 17 18 19 20 21 22 23 24 25 26 27 28 29 30 31 32 33 34 35 36 37 38 39 40 41 42 43 44 45 46 47 48 49 50
000
ASUS43 KIND 272009
RWRIN

WEATHER ROUNDUP FOR INDIANA
NATIONAL WEATHER SERVICE INDIANAPOLIS IN
400 PM EDT WED AUG 27 2014

NOTE: "FAIR" INDICATES FEW OR NO CLOUDS BELOW 12,000 FEET WITH NO
SIGNIFICANT WEATHER AND/OR OBSTRUCTIONS TO VISIBILITY.

* - STATION DOES NOT REPORT WEATHER SUCH AS PRECIPITATION OR FOG.

+ - STATION NOT QUALITY CONTROLLED BY THE NATIONAL WEATHER SERVICE.
    USE DATA WITH CAUTION...ESPECIALLY DEWPOINT AND RELATIVE
    HUMIDITY OBSERVATIONS.

INZ001>003-010>013-019-020-272100-
NORTHWEST INDIANA

CITY           SKY/WX    TMP DP  RH WIND       PRES   REMARKS
GARY /AIRPORT/ MOSUNNY   77  64  65 NE14      30.14F
KNOX *+        PTSUNNY   79  61  54 N8        30.11F
LA PORTE +     MOSUNNY   76  63  64 N9        30.13F
MICHIGAN CITY+ SUNNY     73  59  60 N10       30.14F
MONTICELLO +   CLOUDY    81  70  69 NW6       30.09F
RENSSELAER +   PTSUNNY   79  70  73 N3        30.12S
VALPARAISO     MOSUNNY   78  63  59 N7        30.13F

$$

LMZ046-743>745-272100-
SOUTHERN LAKE MICHIGAN

STATION/POSITION TIME  TEMP WIND        PRES
                       AIR  DIR/SP/G
                 (UTC) (F)  (DEG/KT/KT) (MB)
MICHIGAN CITY    2000   70  360/ 14/ 15   N/A

$$

INZ004-005-014>016-021>024-272100-
NORTH CENTRAL INDIANA

CITY           SKY/WX    TMP DP  RH WIND       PRES   REMARKS
ELKHART        SUNNY     81  57  44 N7        30.12F
GOSHEN         SUNNY     81  61  50 NW5       30.10F
LOGANSPORT +   PTSUNNY   81  66  61 NW5       30.10F
PERU/GRISSOM   PTSUNNY   82  72  71 N8        30.09F
ROCHESTER +    PTSUNNY   82  63  51 N7        30.11F
SOUTH BEND     MOSUNNY   80  62  54 N12       30.12F
WARSAW +       MOSUNNY   81  61  50 NW7       30.10F

$$

INZ006>009-017-018-025>027-272100-
NORTHEAST INDIANA

CITY           SKY/WX    TMP DP  RH WIND       PRES   REMARKS
ANGOLA *+      SUNNY     82  63  51 N7        30.10F
AUBURN +       MOSUNNY   82  46  28 NW6       30.09F
FORT WAYNE     PTSUNNY   81  63  54 NW6       30.09F
HUNTINGTON +   MOSUNNY   81  64  57 N6        30.09S

$$

INZ028-029-035-036-043>045-051>053-272100-
WEST CENTRAL INDIANA

CITY           SKY/WX    TMP DP  RH WIND       PRES   REMARKS
GREENCASTLE +  SUNNY     84  72  65 N5        30.09S
LAFAYETTE      PTSUNNY   83  70  64 NW7       30.09F
TERRE HAUTE    PTSUNNY   87  72  60 CALM      30.07F

$$

INZ030>032-037>040-046>048-054>057-064-065-272100-
CENTRAL INDIANA

CITY           SKY/WX    TMP DP  RH WIND       PRES   REMARKS
ANDERSON       MOSUNNY   84  66  54 N12       30.09F
CP ATTERBURY + MOSUNNY   88  70  55 W3        30.07F
COLUMBUS       MOSUNNY   90  70  51 CALM      30.06F HX  95
FRANKFORT +    PTSUNNY   83  72  68 N6        30.11F
GREENWOOD *+   MOSUNNY   88  73  62 W7        30.08  HX  96
INDIANAPOLIS   PTSUNNY   87  70  56 W6        30.07F
-EAGLE CREEK   MOSUNNY   87  71  58 N9        30.07F
KOKOMO *+      PTSUNNY   84  70  61 N8        30.08F
MARION +       MOSUNNY   82  67  59 N3        30.09F
MT COMFORT *+  MOSUNNY   86  66  51 NW6       30.08F
SHELBYVILLE    SUNNY     87  73  62 N6        30.07F
ZIONSVILLE +   MOSUNNY   84  70  62 NW5       30.10F

$$

INZ033-034-041-042-049-050-058-059-272100-
EAST CENTRAL INDIANA

CITY           SKY/WX    TMP DP  RH WIND       PRES   REMARKS
MUNCIE         MOSUNNY   83  70  64 N7        30.08F

$$

INZ060-061-067>069-081>083-085>088-272100-
SOUTHWEST INDIANA

CITY           SKY/WX    TMP DP  RH WIND       PRES   REMARKS
EVANSVILLE     PTSUNNY   94  68  42 N7        30.05F HX  98
WASHINGTON +   SUNNY     89  74  60 NW5       30.05F HX  99

$$

INZ062-063-066-070>080-084-089>092-272100-
SOUTH CENTRAL AND SOUTHEAST INDIANA

CITY           SKY/WX    TMP DP  RH WIND       PRES   REMARKS
BLOOMINGTON    MOSUNNY   87  72  60 VRB5      30.08F

$$




USA.gov is the U.S. government's official web portal to all federal, state and local government web resources and services.